This demonstration page uses our WeatherBlox Daily Observations layout. Learn more.

Left ArrowRight Arrow

39.92423, -83.80882

Hourly Observations for March 3, 2018

Temp ( °F °C ) Dew Point ( °F °C ) Humidity (%) Winds ( mph kmh ) Pressure ( in mb ) Visibility ( mi km ) Precip ( " mm )
12:56 am 00:56 Clear 28 -2.2 25 -3.9 88 88 WSW 3 6 30.44 1031 10 16 N/A
1:56 am 01:56 Clear 26 -3.3 24 -4.4 92 92 WNW 6 9 30.45 1031 10 16 N/A
3:56 am 03:56 Clear 26 -3.3 24 -4.4 92 92 NW 5 7 30.45 1031 10 16 N/A
4:56 am 04:56 Clear 26 -3.3 24 -4.4 92 92 NNW 3 6 30.45 1031 10 16 N/A
5:56 am 05:56 Clear 25 -3.9 23 -5 92 92 N 6 9 30.47 1032 10 16 N/A
6:56 am 06:56 Clear 26 -3.3 24 -4.4 92 92 N 8 13 30.49 1033 10 16 N/A
7:56 am 07:56 Sunny 29 -1.7 27 -2.8 92 92 NNE 7 11 30.51 1033 10 16 N/A
8:56 am 08:56 Sunny 34 1.1 30 -1.1 85 85 ENE 9 15 30.52 1034 10 16 N/A
10:56 am 10:56 Sunny 37 2.8 26 -3.3 65 65 NE 13 20 30.52 1034 10 16 N/A
11:56 am 11:56 Sunny 38 3.3 26 -3.3 62 62 N 9 15 30.53 1034 10 16 N/A
12:56 pm 12:56 Sunny 40 4.4 26 -3.3 58 58 NNE 12 19 30.51 1033 10 16 N/A
1:56 pm 13:56 Sunny 41 5 22 -5.6 47 47 ENE 6 9 30.49 1032 10 16 N/A
2:56 pm 14:56 Sunny 42 5.6 24 -4.4 49 49 NNW 7 11 30.48 1032 10 16 N/A
3:56 pm 15:56 Sunny 42 5.6 21 -6.1 43 43 N 8 13 30.47 1032 10 16 N/A
4:56 pm 16:56 Sunny 42 5.6 23 -5 47 47 N 13 20 30.46 1032 10 16 N/A
5:56 pm 17:56 Sunny 40 4.4 24 -4.4 53 53 NE 12 19 30.47 1032 10 16 N/A
6:56 pm 18:56 Clear 36 2.2 21 -6.1 55 55 NNE 12 19 30.48 1032 10 16 N/A
7:56 pm 19:56 Clear 34 1.1 22 -5.6 61 61 NNE 9 15 30.48 1032 10 16 N/A
8:56 pm 20:56 Clear 33 0.6 20 -6.7 58 58 NE 10 17 30.48 1032 10 16 N/A
9:56 pm 21:56 Clear 31 -0.6 20 -6.7 64 64 NE 10 17 30.48 1032 10 16 N/A
10:56 pm 22:56 Clear 27 -2.8 20 -6.7 75 75 NE 7 11 30.49 1032 10 16 N/A
11:56 pm 23:56 Clear 28 -2.2 20 -6.7 72 72 NE 5 7 30.48 1032 10 16 N/A

Powered by AerisWeather